{"data":{"norad_id":68518,"intl_designator":"2026-068L","name":"STARLINK-36857","alt_names":[],"object_type":"PAYLOAD","status":"ACTIVE","operator":null,"country":"US","launch_date":"2026-03-30","launch_site_code":"AFETR","launch_vehicle":null,"mission":null,"orbit_class":"UNKNOWN","rcs_meters":null,"size_class":null,"mass_kg":null,"dimensions":null,"purposes":["comms"],"wikipedia_slug":null,"has_3d_model":false,"image_url":null,"decayed_at":null,"tle_current":{"epoch":"2026-09-20T03:19:28.098624Z","epoch_age_seconds":78871,"freshness":"FRESH","line1":"1 68518U 26068L   26263.13851966  .00021656  00000+0  65031-3 0  9995","line2":"2 68518  53.1584 301.2680 0001234  95.2883 264.8261 15.34396093 26786","mean_motion":15.34396093,"eccentricity":0.0001234,"inclination_deg":53.1584,"raan_deg":301.268,"arg_perigee_deg":95.2883,"mean_anomaly_deg":264.8261,"bstar":0.00065031,"rev_number":2678,"period_min":93.847997043877,"perigee_km":461.87069154049,"apogee_km":463.55901377773,"semimajor_km":6840.8518526591,"source":"CELESTRAK","updated_at":"2026-09-20T09:00:43.903681Z"}}}